Погода в Ор-Эркеншвике

Германия     51°38′21″N   7°16′01″E
темп.,
°C
ветер,
м/с
пор.,
м/с
влажн.,
%
обл.,
%
осадки,
мм/ч
давл.,
гПа
погр.,
м
14 мая, пт
пт1423:00+11зюз4795100 1.5 1007235
02:00+10з3697100 1.7 1007280
05:00+10зюз3797100 0.1 1006301
08:00+10зюз3595100 0.3 1007339
11:00+13зюз3473100 0.3 1008859
14:00+15зсз3353100 0.7 10071499
17:00+17сз454962 0.2 10061741
20:00+13сз22815 1.3 100733
15 мая, сб
сб1523:00+9зюз01926 0.7 100710
02:00+8ююз25979 0.8 1007101
05:00+7ююз379813 0.0 1006186
08:00+9ююз489239 0.0 1006419
11:00+10юз5785100 0.1 1005705
14:00+12юз3573100 0.3 1004941
17:00+9ююз4991100 1.9 1004436
20:00+9юз3796100 3.8 1003403
16 мая, вс
вс1623:00+8ююз289629 0.4 1003396
02:00+8ююз310968 0.6 1003363
05:00+7ююз4119561 0.0 1003427
08:00+8ююз5119111 0.0 1003530
11:00+13юз686126 0.2 10021530
14:00+13юз6775100 1.4 10021438
17:00+13зюз588291 2.4 10011105
20:00+11зюз388889 3.6 1002381
17 мая, пн
пн1723:00+8ююз2595100 0.0 100299
02:00+9ю3895100 0.7 1002278
05:00+8ююз41097100 0.2 1001454
08:00+9ююз51093100 0.2 10021026
11:00+9ююз81595100 3.7 10011503
14:00+10юз71395100 4.5 10021202
17:00+12зюз61090100 2.2 1003943
20:00+11зюз4991100 4.3 1004510
18 мая, вт
вт1823:00+9юз389898 0.8 1005213
02:00+7юз369929 1.1 1006145
05:00+7зюз379979 0.1 1008240
08:00+8зюз479599 0.1 1010413
11:00+11з5784100 0.4 1011919
14:00+12з597864 1.7 10121236
17:00+14з696862 1.3 10131764
20:00+12з596711 1.9 1015995